Tracking 19709 objects as of 19-Jun-2019
HD Live streaming from Space Station
objects crossing your sky now

DELTA 1 DEB

Track DELTA 1 DEB now!
10-day predictions


NORAD ID: 42579
Int'l Code: 1973-086HT
Perigee: 1,508.2 km
Apogee: 1,635.9 km
Inclination: 102.3 °
Period: 117.4 minutes
Semi major axis: 7943 km
RCS: Unknown
Launch date: November 6, 1973
Source: United States (US)
Launch site: AIR FORCE WESTERN TEST RANGE (AFWTR)

Note: This is SATELLITE DEBRIS
aabbcc
Your satellite tracking list
Your tracking list is empty




NASA's NSSDC Master Catalog

Two Line Element Set (TLE):
1 42579U 73086HT  18195.01257538 -.00000033 +00000-0 +10000-3 0  9997
2 42579 102.3264 163.6584 0080394 082.5446 278.5100 12.26373812145887
Source of the keplerian elements: AFSPC